Orbital Elements at Epoch 2459000.5 (2020-May-31.0) TDB
Reference: JPL 14 (heliocentric ecliptic J2000)
Element | Value | Uncertainty (1-sigma) | Units |
e | .06001957680685498 | 1.1202e-07 | |
a | 2.93153993024817 | 5.0366e-08 | au |
q | 2.755590144242277 | 3.1967e-07 | au |
i | 11.86841412006866 | 1.0078e-05 | deg |
node | 206.7872607335612 | 2.9309e-05 | deg |
peri | 336.470272255945 | 5.7928e-05 | deg |
M | 83.82122010355924 | 4.5772e-05 | deg |
tp | 2458573.631974426792 (2019-Mar-31.13197443) | 0.00023609 | TDB |
period | 1833.33634390547 5.02 | 4.7247e-05 1.294e-07 | d yr |
n | .1963633139094974 | 5.0605e-09 | deg/d |
Q | 3.107489716254062 | 5.3389e-08 | au |
|
| | Orbit Determination Parameters
Additional Information
|